TimeCDT,TemperatureF,Dew PointF,Humidity,Sea Level PressureIn,VisibilityMPH,Wind Direction,Wind SpeedMPH,Gust SpeedMPH,PrecipitationIn,Events,Conditions,WindDirDegrees,DateUTC
12:53 AM,57.0,55.0,93,30.01,8.0,NE,4.6,-,0.09,Rain,Rain,50,2012-03-22 05:53:00
1:53 AM,57.0,55.0,93,30.03,6.0,Calm,Calm,-,0.04,Rain,Rain,0,2012-03-22 06:53:00
2:53 AM,55.9,53.1,90,30.00,7.0,ESE,5.8,-,0.08,Rain,Rain,110,2012-03-22 07:53:00
3:53 AM,54.0,51.1,90,29.98,10.0,ESE,8.1,-,0.03,,Overcast,110,2012-03-22 08:53:00
4:53 AM,53.1,51.1,93,29.99,10.0,SSE,3.5,-,N/A,,Overcast,150,2012-03-22 09:53:00
5:53 AM,53.1,51.1,93,29.98,10.0,Calm,Calm,-,N/A,,Mostly Cloudy,0,2012-03-22 10:53:00
6:53 AM,53.1,52.0,96,30.01,10.0,Calm,Calm,-,N/A,,Overcast,0,2012-03-22 11:53:00
7:53 AM,53.1,52.0,96,30.02,10.0,ENE,4.6,-,N/A,,Mostly Cloudy,70,2012-03-22 12:53:00
8:18 AM,53.6,53.6,100,30.02,8.0,East,3.5,-,N/A,,Mostly Cloudy,80,2012-03-22 13:18:00
8:53 AM,55.0,53.1,93,30.01,10.0,East,5.8,-,N/A,,Partly Cloudy,90,2012-03-22 13:53:00
9:22 AM,55.4,53.6,94,30.03,10.0,Calm,Calm,-,N/A,,Scattered Clouds,0,2012-03-22 14:22:00
9:53 AM,55.9,55.0,97,30.03,10.0,East,5.8,-,N/A,,Mostly Cloudy,100,2012-03-22 14:53:00
10:32 AM,59.0,55.4,88,30.04,10.0,ESE,4.6,-,N/A,,Partly Cloudy,110,2012-03-22 15:32:00
10:53 AM,61.0,55.0,81,30.04,10.0,ESE,6.9,-,N/A,,Scattered Clouds,110,2012-03-22 15:53:00
11:53 AM,64.0,55.9,75,30.04,10.0,ESE,8.1,-,N/A,,Partly Cloudy,120,2012-03-22 16:53:00
12:53 PM,68.0,55.0,63,30.02,10.0,Variable,3.5,-,N/A,,Partly Cloudy,0,2012-03-22 17:53:00
1:53 PM,69.1,55.0,61,29.99,10.0,ESE,3.5,-,N/A,,Mostly Cloudy,110,2012-03-22 18:53:00
2:53 PM,72.0,53.1,51,29.98,10.0,Calm,Calm,-,N/A,,Scattered Clouds,0,2012-03-22 19:53:00
3:53 PM,73.0,53.1,49,29.96,10.0,Calm,Calm,-,N/A,,Mostly Cloudy,0,2012-03-22 20:53:00
4:53 PM,72.0,55.0,55,29.96,10.0,SE,4.6,-,N/A,,Mostly Cloudy,140,2012-03-22 21:53:00
5:53 PM,70.0,55.9,61,29.96,10.0,East,5.8,-,N/A,,Mostly Cloudy,90,2012-03-22 22:53:00
6:53 PM,66.9,55.0,66,29.96,10.0,East,5.8,-,N/A,,Scattered Clouds,90,2012-03-22 23:53:00
7:53 PM,64.9,57.0,75,29.96,10.0,Calm,Calm,-,N/A,,Mostly Cloudy,0,2012-03-23 00:53:00
8:53 PM,64.0,57.9,80,29.98,10.0,SE,5.8,-,N/A,,Overcast,130,2012-03-23 01:53:00
9:53 PM,63.0,59.0,87,29.99,10.0,ESE,4.6,-,N/A,,Mostly Cloudy,110,2012-03-23 02:53:00
10:53 PM,63.0,60.1,90,30.00,10.0,Calm,Calm,-,N/A,,Overcast,0,2012-03-23 03:53:00
11:53 PM,60.1,59.0,96,29.99,10.0,East,3.5,-,N/A,,Scattered Clouds,100,2012-03-23 04:53:00